Location: Pedholt
(56.0260°N, 10.2097°E)
Time: 02:10:39
(UTC+00:00)

A-11 Canister half - Pass Details

Date: 28 July 2021
Orbit: 1514 x 1685 km, 47.2° (Epoch: 16 September)

Event Time Altitude Azimuth Distance (km) Brightness Sun altitude
Rises 16:19:58 0° 198° (SSW) 4,802 11.9 24.7°
Reaches altitude 10° 16:23:48 10° 186° (S) 3,847 11.3 24.1°
Maximum altitude 16:31:05 24° 137° (SE) 2,931 10.3 23.1°
Drops below altitude 10° 16:38:30 10° 89° (E) 3,938 10.6 22.1°
Sets 16:42:27 0° 77° (ENE) 4,940 11.1 21.5°
